Beaver Lake Weather Center

Moon Phase Calendar



Beaver Lake Water Level
Online Cameras

 


      

Current Conditions in Prairie Creek
10/3/2022 8:06:51 PM

67°F
Feels Like 66
Clear
Humidity
47%
Pressure
30.18"
Wind
5.4 mph (E)
Dew Point
46°F
UV Index
0/10 (Low)
Visibility
6 mi

Hourly Forecast

Date & Time Mon, Oct 3
8:00 PM
Mon, Oct 3
9:00 PM
Mon, Oct 3
10:00 PM
Mon, Oct 3
11:00 PM
Tue, Oct 4
12:00 AM
Tue, Oct 4
1:00 AM
Tue, Oct 4
2:00 AM
Tue, Oct 4
3:00 AM
Tue, Oct 4
4:00 AM
Tue, Oct 4
5:00 AM
Tue, Oct 4
6:00 AM
Tue, Oct 4
7:00 AM
Tue, Oct 4
8:00 AM
Tue, Oct 4
9:00 AM
Tue, Oct 4
10:00 AM
Tue, Oct 4
11:00 AM
Tue, Oct 4
12:00 PM
Tue, Oct 4
1:00 PM
Tue, Oct 4
2:00 PM
Tue, Oct 4
3:00 PM
Tue, Oct 4
4:00 PM
Tue, Oct 4
5:00 PM
Tue, Oct 4
6:00 PM
Tue, Oct 4
7:00 PM
Tue, Oct 4
8:00 PM
Tue, Oct 4
9:00 PM
Tue, Oct 4
10:00 PM
Tue, Oct 4
11:00 PM
Wed, Oct 5
12:00 AM
Wed, Oct 5
1:00 AM
Wed, Oct 5
2:00 AM
Wed, Oct 5
3:00 AM
Wed, Oct 5
4:00 AM
Wed, Oct 5
5:00 AM
Wed, Oct 5
6:00 AM
Wed, Oct 5
7:00 AM
Wed, Oct 5
8:00 AM
Wed, Oct 5
9:00 AM
Wed, Oct 5
10:00 AM
Wed, Oct 5
11:00 AM
Wed, Oct 5
12:00 PM
Wed, Oct 5
1:00 PM
Wed, Oct 5
2:00 PM
Wed, Oct 5
3:00 PM
Wed, Oct 5
4:00 PM
Wed, Oct 5
5:00 PM
Wed, Oct 5
6:00 PM
Wed, Oct 5
7:00 PM
Condition
Clear

Clear

Clear

Clear

Clear

Clear

Clear

Clear

Clear

Clear

Clear

Clear

Clear

Clear

Clear

Clear

Clear

Clear

Clear

Clear

Clear

Clouds

Clouds

Clouds

Clouds

Clouds

Clouds

Clouds

Clouds

Clouds

Clouds

Clouds

Clouds

Clouds

Clouds

Clouds

Clouds

Clouds

Clouds

Clouds

Clouds

Clouds

Clouds

Clouds

Clouds

Clouds

Clouds

Clouds
Temperature 67°F66°F64°F62°F59°F56°F55°F54°F53°F53°F52°F51°F54°F62°F69°F74°F79°F81°F82°F82°F82°F80°F75°F67°F64°F61°F60°F59°F58°F58°F57°F56°F56°F55°F55°F55°F57°F65°F72°F77°F81°F83°F85°F85°F85°F84°F80°F72°F
Feels Like 66°F65°F63°F61°F58°F54°F53°F52°F51°F50°F49°F48°F51°F59°F66°F73°F77°F79°F80°F80°F80°F79°F74°F65°F62°F59°F58°F56°F56°F55°F55°F54°F53°F53°F52°F52°F55°F63°F70°F76°F79°F81°F82°F82°F82°F81°F80°F70°F
Cloudiness 0%0%0%0%0%0%0%0%0%0%0%0%0%3%3%3%3%3%5%5%8%27%42%47%71%76%59%47%52%59%80%60%42%34%30%27%15%17%17%17%17%17%29%24%23%34%33%32%
Visibility 6 mi6 mi6 mi6 mi6 mi6 mi6 mi6 mi6 mi6 mi6 mi6 mi6 mi6 mi6 mi6 mi6 mi6 mi6 mi6 mi6 mi6 mi6 mi6 mi6 mi6 mi6 mi6 mi6 mi6 mi6 mi6 mi6 mi6 mi6 mi6 mi6 mi6 mi6 mi6 mi6 mi6 mi6 mi6 mi6 mi6 mi6 mi6 mi
Precipitation 0%0%0%0%0%0%0%0%0%0%0%0%0%0%0%0%0%0%0%0%0%0%0%0%0%0%0%0%0%0%0%0%0%0%0%0%0%0%0%0%0%0%0%0%0%0%0%0%
Humidity 47%49%52%55%59%63%59%54%51%48%46%44%43%32%26%23%22%22%21%21%21%22%31%37%39%40%42%43%45%46%47%49%51%52%53%53%52%40%32%28%25%23%22%21%22%23%30%37%
Dew Point 46°F47°F46°F46°F45°F43°F40°F38°F35°F34°F32°F30°F31°F31°F32°F34°F37°F38°F38°F38°F38°F38°F42°F40°F38°F37°F36°F36°F36°F37°F37°F37°F37°F38°F38°F38°F39°F40°F41°F41°F42°F42°F41°F41°F41°F42°F46°F43°F
Pressure 30.18"30.18"30.18"30.18"30.18"30.18"30.18"30.18"30.15"30.18"30.18"30.18"30.18"30.18"30.18"30.18"30.15"30.12"30.09"30.06"30.03"30.03"30.03"30.06"30.09"30.09"30.09"30.09"30.09"30.09"30.09"30.09"30.09"30.09"30.12"30.12"30.12"30.12"30.12"30.12"30.09"30.06"30.03"30"30"30"30"30"
Wind Speed 5.4 mph5.4 mph5.4 mph5.4 mph5.6 mph5.1 mph4.5 mph4.4 mph4.3 mph4.4 mph4.5 mph4.1 mph3.5 mph3.3 mph3.8 mph3.1 mph2.2 mph2.8 mph3.5 mph4.1 mph4.4 mph4.8 mph4.9 mph6.2 mph6.1 mph5.8 mph5.1 mph5 mph4.8 mph4.3 mph4.4 mph3.9 mph3.3 mph3.4 mph3 mph3.4 mph3.3 mph3.5 mph4.7 mph6 mph6.6 mph6.9 mph7 mph7.5 mph8.1 mph7.6 mph4.2 mph3.9 mph
Wind
Direction
94°
E
107°
ESE
108°
ESE
106°
ESE
104°
ESE
110°
ESE
115°
ESE
111°
ESE
108°
ESE
103°
ESE
102°
ESE
109°
ESE
121°
ESE
120°
ESE
125°
SE
126°
SE
106°
ESE
69°
ENE
61°
ENE
60°
ENE
65°
ENE
72°
ENE
72°
ENE
86°
E
109°
ESE
128°
SE
133°
SE
134°
SE
137°
SE
135°
SE
134°
SE
140°
SE
151°
SSE
171°
S
176°
S
164°
SSE
174°
S
189°
S
210°
SSW
246°
WSW
260°
W
266°
W
271°
W
277°
W
280°
W
281°
W
265°
W
220°
SW

Daily Forecast

Date High Low Precip. Humidity
Today
Oct 3

Clear
82 °F
52 °F
0%
26%
Tuesday
Oct 4

Clear
82 °F
51 °F
0%
22%
Wednesday
Oct 5

Clouds
85 °F
55 °F
0%
23%
Thursday
Oct 6

Clear
84 °F
58 °F
0%
26%
Friday
Oct 7

Clear
73 °F
51 °F
0%
29%
Saturday
Oct 8

Clouds
72 °F
43 °F
0%
23%
Sunday
Oct 9

Clouds
80 °F
51 °F
0%
27%
Monday
Oct 10

Rain
83 °F
57 °F
36%
26%
Tuesday
Oct 11

Rain
84 °F
68 °F
40%
28%
Wednesday
Oct 12

Rain
89 °F
62 °F
100%
40%
Thursday
Oct 13

Rain
65 °F
48 °F
96%
23%
Friday
Oct 14

Clear
70 °F
42 °F
0%
22%
Saturday
Oct 15

Rain
67 °F
49 °F
100%
84%
Sunday
Oct 16

Rain
69 °F
58 °F
100%
76%
Monday
Oct 17

Clear
63 °F
43 °F
0%
24%
Tuesday
Oct 18

Clear
72 °F
40 °F
0%
23%

Temperature 8-14 Day Outlook



Precipitation 8-14 Day Outlook






About Us
Contact Us
Site Map
Search Site
Advertise With Us
   
Beaver.USLakes.info
THE BEAVER LAKE WEBSITE

Copyright 2022, Lakes Online
Privacy    |    Legal